Regional Weather Roundup
Issued by NWS

Home | Current Version | Previous Version | Graphics & Text | Print | Product List | Glossary On
Versions: 1 2 3 4 5 6 7 8 9 10 11 12 13 14 15 16 17 18 19 20 21 22 23 24 25 26 27 28 29 30 31 32 33 34 35 36 37 38 39 40 41 42 43 44 45 46 47 48 49 50
000
ASUS43 KOAX 212310
RWRNE

WEATHER ROUNDUP FOR NEBRASKA
NATIONAL WEATHER SERVICE OMAHA NE
600 PM CDT SAT OCT 21 2017

NOTES: SATELLITE DATA IS BEING USED TO AUGMENT CLOUD COVER ABOVE
       12000 FEET.
       "FAIR" INDICATES FEW OR NO CLOUDS BELOW 12,000 FEET WITH NO
       SIGNIFICANT WEATHER AND/OR OBSTRUCTIONS TO VISIBILITY.


NEZ001>004-019>022-054>056-220000-
NEBRASKA PANHANDLE

CITY           SKY/WX    TMP DP  RH WIND       PRES   REMARKS
SCOTTSBLUFF    MOSUNNY   57  13  17 W22G30    29.98R
ALLIANCE       CLEAR     55  10  16 NW20G28   29.96R HAZE
CHADRON        PTCLDY    57  11  16 NW14      29.93R
GORDON         FAIR      56  14  18 W18G29    29.92R
KIMBALL        MOSUNNY   52  13  21 NW23G32   30.03R
SIDNEY         SUNNY     54  13  19 NW22G30   30.01R
$$

NEZ057>060-069>072-079>082-220000-
SOUTHWEST NEBRASKA

CITY           SKY/WX    TMP DP  RH WIND       PRES   REMARKS
NORTH PLATTE   CLEAR     59  26  28 NW15      29.95R
IMPERIAL       CLEAR     60  17  18 NW13      29.98R
LEXINGTON      CLEAR     58  35  41 NW10      29.94R
MCCOOK         CLEAR     62  22  21 NW22      29.96R
OGALLALA       CLEAR     59  19  21 NW14      29.97R
$$

NEZ005>010-023>029-035>040-094-220000-
NORTH CENTRAL NEBRASKA

CITY           SKY/WX    TMP DP  RH WIND       PRES   REMARKS
VALENTINE      CLEAR     59  26  28 W13       29.90R
AINSWORTH      CLEAR     56  31  38 W8        29.90R
BROKEN BOW     CLEAR     57  36  45 NW7       29.92R
O`NEILL        CLEAR     56  33  42 NW14      29.89R
ORD            CLEAR     56  35  45 NW12      29.90R
THEDFORD       CLEAR     58  24  27 NW13G24   29.93R
$$

NEZ041-046>049-061>064-073>077-083>087-220000-
SOUTH CENTRAL NEBRASKA

CITY           SKY/WX    TMP DP  RH WIND       PRES   REMARKS
GRAND ISLAND   CLEAR     55  39  54 NW14      29.93R
AURORA         CLEAR     55  37  51 NW9G21    29.92R
HASTINGS       PTCLDY    55  37  50 NW17      29.94R
HEBRON         CLEAR     60  40  47 N13       29.90R
HOLDREGE       CLEAR     57  37  47 N9        29.94R
KEARNEY        CLEAR     57  35  43 NW12      29.94R
YORK           CLEAR     55  39  54 NW10G20   29.91R
$$

NEZ011>018-030>034-042>045-220000-
NORTHEAST NEBRASKA

CITY           SKY/WX    TMP DP  RH WIND       PRES   REMARKS
NORFOLK        CLEAR     54  36  50 NW14G25   29.87R
ALBION         PTCLDY    55  39  53 NW12      29.89S
BLAIR          CLOUDY    58  42  56 NW16G26   29.85R
FREMONT        CLOUDY    57  41  55 NW14      29.87R
TEKAMAH        CLOUDY    57  40  52 NW13G21   29.85R
WAYNE          CLOUDY    55  37  49 NW13G18   29.87R
$$

NEZ050>053-065>068-078-088>093-220000-
SOUTHEAST NEBRASKA

CITY           SKY/WX    TMP DP  RH WIND       PRES   REMARKS
LINCOLN        PTCLDY    60  41  49 NW22      29.89R
OMAHA EPPLEY   MOCLDY    60  43  53 NW16      29.84R
BEATRICE       CLOUDY    61  42  50 N23       29.88R
FALLS CITY     CLOUDY    62  52  69 NW13      29.82R
NEBRASKA CITY  CLOUDY    62  46  56 NW15G23   29.84R
PLATTSMOUTH    MOCLDY    61  45  56 NW16      29.84R
$$

NEZ044-045-051>053-067-220000-
OMAHA AREA

CITY           SKY/WX    TMP DP  RH WIND       PRES   REMARKS
OMAHA EPPLEY   MOCLDY    60  43  53 NW16      29.84R
BLAIR          CLOUDY    58  42  56 NW16G26   29.85R
FREMONT        CLOUDY    57  41  55 NW14      29.87R
MILLARD        CLOUDY    61  44  53 NW15G21   29.85R
OFFUTT AFB     PTCLDY    60  44  55 NW13G21   29.84R
PLATTSMOUTH    MOCLDY    61  45  56 NW16      29.84R
WAHOO          MOCLDY    58  40  50 NW18      29.87R
$$




USA.gov is the U.S. government's official web portal to all federal, state and local government web resources and services.